Weather History for Fairfield, CA

Change the Weather History Date:

Saturday, November 17, 2012

  Actual Average Record
Temperature  
Mean Temperature 58 °F -  
Max Temperature 62 °F 62 °F 74 °F (2008)
Min Temperature 53 °F 43 °F 30 °F (2000)
Degree Days  
Heating Degree Days 8    
Growing Degree Days 8 (Base 50)    
Moisture  
Dew Point 56 °F    
Average Humidity 99    
Maximum Humidity 100    
Minimum Humidity 76    
Precipitation  
Precipitation 0.39 in - - ()
Sea Level Pressure  
Sea Level Pressure 29.87 in    
Wind  
Wind Speed 9 mph (SSE)    
Max Wind Speed 21 mph    
Max Gust Speed 28 mph    
Visibility 6 miles    
Events Rain    
Averages and records for this station are not official NWS values.
T = Trace of Precipitation, MM = Missing Value Source: NWS Daily Summary

Daily Weather History Graph

Daily Weather History Graph

Search for Another Location

Airport:

Trip Planner

Search our weather history database for the weather conditions in past years. The results will help you decide how hot, cold, wet, or windy it might be!

Date:

Astronomy

Nov. 17, 2012 Rise Set
Actual Time 6:51 AM PST 4:53 PM PST
Civil Twilight 6:23 AM PST 5:21 PM PST
Nautical Twilight 5:51 AM PST 5:53 PM PST
Astronomical Twilight 5:20 AM PST 6:25 PM PST
Moon 10:40 AM PST (11/17) 9:09 PM PST (11/17)
Length of Visible Light 10h 58m
Length of Day
10h 01m
Waxing Crescent, 21% of the Moon is Illuminated
Nov 17
Waxing Crescent
Nov 20
First Quarter
Nov 28
Full
Dec 6
Last Quarter
Dec 13
New

Hourly Weather History & Observations

Time (PST) Temp. Dew Point Humidity Pressure Visibility Wind Dir Wind Speed Gust Speed Precip Events Conditions
12:49 AM 53.6 °F 53.6 °F 100% 29.87 in 5.0 mi NE 8.1 mph - N/A   Overcast
12:58 AM 53.4 °F 53.4 °F 100% 29.89 in 5.0 mi NNE 11.5 mph - 0.06 in   Overcast
1:11 AM 53.6 °F 53.6 °F 100% 29.86 in 5.0 mi NNE 10.4 mph - N/A   Light Drizzle
1:26 AM 53.6 °F 53.6 °F 100% 29.86 in 3.0 mi NNE 6.9 mph - N/A Rain Light Rain
1:31 AM 53.6 °F 53.6 °F 100% 29.87 in 3.0 mi NE 4.6 mph - N/A Rain Rain
1:41 AM 53.6 °F 53.6 °F 100% 29.87 in 2.5 mi NE 8.1 mph - N/A Rain Light Rain
1:46 AM 53.6 °F 53.6 °F 100% 29.87 in 2.5 mi ENE 5.8 mph - N/A Rain Rain
1:56 AM 53.6 °F 53.6 °F 100% 29.86 in 3.0 mi NE 8.1 mph - N/A Rain Light Rain
1:57 AM 53.6 °F 53.6 °F 100% 29.86 in 3.0 mi NE 8.1 mph - N/A Rain Light Rain
1:58 AM 53.4 °F 53.4 °F 100% 29.88 in 3.0 mi NE 8.1 mph - 0.04 in Rain Light Rain
2:03 AM 53.6 °F 53.6 °F 100% 29.86 in 3.0 mi NE 9.2 mph - N/A Rain Light Rain
2:16 AM 53.6 °F 53.6 °F 100% 29.85 in 4.0 mi NE 9.2 mph - N/A   Overcast
2:21 AM 53.6 °F 53.6 °F 100% 29.85 in 4.0 mi NE 8.1 mph - N/A   Overcast
2:27 AM 53.6 °F 53.6 °F 100% 29.85 in 4.0 mi NE 5.8 mph - N/A   Light Drizzle
2:31 AM 53.6 °F 53.6 °F 100% 29.85 in 3.0 mi ENE 4.6 mph - N/A Rain Light Rain
2:36 AM 53.6 °F 53.6 °F 100% 29.86 in 2.0 mi ENE 5.8 mph - N/A Rain Light Rain
2:41 AM 53.6 °F 53.6 °F 100% 29.85 in 1.8 mi ENE 6.9 mph - N/A Rain Light Rain
2:46 AM 53.6 °F 53.6 °F 100% 29.85 in 2.0 mi ENE 5.8 mph - N/A Rain Light Rain
2:51 AM 53.6 °F 53.6 °F 100% 29.85 in 2.5 mi ENE 5.8 mph - N/A Rain Light Rain
2:58 AM 54.5 °F 54.5 °F 100% 29.87 in 2.5 mi ENE 4.6 mph - 0.01 in Rain Light Rain
3:03 AM 55.4 °F 55.4 °F 100% 29.85 in 2.0 mi NE 5.8 mph - N/A Rain Light Rain
3:08 AM 55.4 °F 55.4 °F 100% 29.85 in 2.0 mi NE 5.8 mph - N/A Rain Light Rain
3:18 AM 55.4 °F 55.4 °F 100% 29.84 in 2.0 mi ENE 3.5 mph - N/A   Light Drizzle
3:23 AM 55.4 °F 55.4 °F 100% 29.84 in 2.0 mi ENE 3.5 mph - N/A   Light Drizzle
3:28 AM 55.4 °F 55.4 °F 100% 29.84 in 2.0 mi East 3.5 mph - N/A Rain Light Rain
3:33 AM 55.4 °F 55.4 °F 100% 29.84 in 2.5 mi East 4.6 mph - N/A Rain Light Rain
3:38 AM 55.4 °F 55.4 °F 100% 29.84 in 2.5 mi East 2.3 mph - N/A   Light Drizzle
3:43 AM 55.4 °F 55.4 °F 100% 29.83 in 3.0 mi ENE 3.5 mph - N/A   Light Drizzle
3:44 AM 55.4 °F 55.4 °F 100% 29.83 in 4.0 mi ENE 3.5 mph - N/A   Overcast
3:49 AM 55.4 °F 55.4 °F 100% 29.83 in 4.0 mi ENE 4.6 mph - N/A   Overcast
3:54 AM 55.4 °F 55.4 °F 100% 29.83 in 4.0 mi East 4.6 mph - N/A   Overcast
3:58 AM 55.6 °F 55.6 °F 100% 29.85 in 5.0 mi ESE 4.6 mph - 0.02 in   Overcast
3:59 AM 55.4 °F 55.4 °F 100% 29.83 in 5.0 mi ESE 5.8 mph - N/A   Overcast
4:58 AM 56.3 °F 56.3 °F 100% 29.83 in 10.0 mi SE 10.4 mph - 0.01 in   Overcast
5:57 AM 57.2 °F 57.2 °F 100% 29.82 in 5.0 mi SSE 12.7 mph - N/A Rain Light Rain
5:58 AM 56.8 °F 56.5 °F 99% 29.84 in 5.0 mi SE 15.0 mph - N/A Rain Light Rain
6:01 AM 57.2 °F 55.4 °F 94% 29.82 in 5.0 mi SE 12.7 mph - N/A Rain Light Rain
6:06 AM 57.2 °F 55.4 °F 94% 29.82 in 7.0 mi SSE 11.5 mph - N/A Rain Light Rain
6:08 AM 57.2 °F 55.4 °F 94% 29.82 in 9.0 mi SSE 8.1 mph 18.4 mph N/A   Overcast
6:15 AM 57.2 °F 55.4 °F 94% 29.82 in 8.0 mi SSE 11.5 mph 17.3 mph N/A Rain Light Rain
6:23 AM 57.2 °F 57.2 °F 100% 29.82 in 9.0 mi SSE 13.8 mph 21.9 mph N/A Rain Light Rain
6:43 AM 57.2 °F 57.2 °F 100% 29.82 in 10.0 mi SSE 8.1 mph - N/A   Overcast
6:51 AM 57.2 °F 57.2 °F 100% 29.82 in 7.0 mi SSE 10.4 mph - N/A Rain Light Rain
6:58 AM 56.8 °F 56.7 °F 99% 29.85 in 5.0 mi SSE 13.8 mph - 0.02 in Rain Light Rain
7:08 AM 57.2 °F 57.2 °F 100% 29.82 in 9.0 mi SSE 16.1 mph 27.6 mph N/A   Overcast
7:11 AM 57.2 °F 57.2 °F 100% 29.82 in 10.0 mi SE 17.3 mph 27.6 mph N/A Rain Light Rain
7:15 AM 57.2 °F 57.2 °F 100% 29.82 in 8.0 mi SSE 17.3 mph 24.2 mph N/A Rain Light Rain
7:25 AM 57.2 °F 55.4 °F 94% 29.83 in 6.0 mi SE 18.4 mph 24.2 mph N/A   Overcast
7:30 AM 57.2 °F 57.2 °F 100% 29.83 in 5.0 mi SSE 13.8 mph 23.0 mph N/A   Overcast
7:37 AM 55.4 °F 55.4 °F 100% 29.83 in 4.0 mi SE 13.8 mph 19.6 mph N/A Rain Light Rain
7:42 AM 55.4 °F 55.4 °F 100% 29.84 in 2.0 mi SE 12.7 mph 19.6 mph N/A Rain Light Rain
7:47 AM 57.2 °F 55.4 °F 94% 29.84 in 1.2 mi SSE 12.7 mph 19.6 mph N/A Rain Light Rain
7:58 AM 56.3 °F 56.3 °F 100% 29.86 in 1.2 mi SSE 13.8 mph 21.9 mph 0.04 in Rain Light Rain
8:03 AM 55.4 °F 55.4 °F 100% 29.84 in 1.8 mi SSE 9.2 mph 21.9 mph N/A Rain Light Rain
8:08 AM 55.4 °F 55.4 °F 100% 29.84 in 3.0 mi SSE 12.7 mph 17.3 mph N/A Rain Light Rain
8:12 AM 55.4 °F 55.4 °F 100% 29.85 in 5.0 mi SSE 12.7 mph 17.3 mph N/A   Overcast
8:17 AM 57.2 °F 57.2 °F 100% 29.85 in 5.0 mi SSE 12.7 mph 20.7 mph N/A   Overcast
8:58 AM 57.4 °F 57.4 °F 100% 29.88 in 6.0 mi SSE 10.4 mph - 0.03 in   Overcast
9:06 AM 57.2 °F 57.2 °F 100% 29.86 in 2.5 mi SSE 11.5 mph - N/A Rain Light Rain
9:11 AM 57.2 °F 57.2 °F 100% 29.86 in 1.8 mi SSE 10.4 mph 19.6 mph N/A Rain Light Rain
9:26 AM 57.2 °F 57.2 °F 100% 29.87 in 1.5 mi SSE 12.7 mph - N/A Rain Light Rain
9:36 AM 57.2 °F 57.2 °F 100% 29.87 in 2.5 mi SSE 11.5 mph - N/A Rain Light Rain
9:41 AM 57.2 °F 57.2 °F 100% 29.87 in 2.5 mi SSE 10.4 mph - N/A Rain Light Rain
9:46 AM 57.2 °F 57.2 °F 100% 29.87 in 2.0 mi South 11.5 mph - N/A Rain Light Rain
9:56 AM 57.2 °F 57.2 °F 100% 29.88 in 1.5 mi South 12.7 mph - N/A Rain Light Rain
9:58 AM 57.2 °F 57.2 °F 100% 29.90 in 1.5 mi South 10.4 mph - 0.05 in Rain Light Rain
10:03 AM 57.2 °F 57.2 °F 100% 29.88 in 1.2 mi South 10.4 mph - N/A Rain Light Rain
10:06 AM 57.2 °F 57.2 °F 100% 29.89 in 1.2 mi South 9.2 mph - N/A   Overcast
10:11 AM 57.2 °F 57.2 °F 100% 29.89 in 1.8 mi South 9.2 mph - N/A   Overcast
10:16 AM 57.2 °F 57.2 °F 100% 29.89 in 2.0 mi South 8.1 mph - N/A   Overcast
10:31 AM 57.2 °F 57.2 °F 100% 29.90 in 3.0 mi South 8.1 mph - N/A   Overcast
10:35 AM 57.2 °F 57.2 °F 100% 29.90 in 6.0 mi South 8.1 mph - N/A Rain Light Rain
10:40 AM 57.2 °F 57.2 °F 100% 29.90 in 9.0 mi South 5.8 mph - N/A Rain Light Rain
10:45 AM 57.2 °F 57.2 °F 100% 29.90 in 10.0 mi South 5.8 mph - N/A   Light Drizzle
10:49 AM 59.0 °F 59.0 °F 100% 29.90 in 10.0 mi South 5.8 mph - N/A   Overcast
10:54 AM 59.0 °F 59.0 °F 100% 29.90 in 10.0 mi South 5.8 mph - N/A   Overcast
10:58 AM 59.0 °F 59.0 °F 100% 29.92 in 10.0 mi South 5.8 mph - 0.08 in   Overcast
11:03 AM 59.0 °F 59.0 °F 100% 29.90 in 10.0 mi SSW 3.5 mph - N/A   Overcast
11:28 AM 59.0 °F 59.0 °F 100% 29.89 in 10.0 mi SSW 10.4 mph - N/A   Overcast
11:43 AM 60.8 °F 60.8 °F 100% 29.89 in 10.0 mi SW 12.7 mph - N/A   Overcast
11:48 AM 60.8 °F 60.8 °F 100% 29.89 in 10.0 mi SW 12.7 mph - N/A   Overcast
11:58 AM 60.8 °F 60.8 °F 100% 29.91 in 10.0 mi SSW 10.4 mph - N/A   Overcast
12:08 PM 60.8 °F 60.8 °F 100% 29.89 in 10.0 mi SSW 11.5 mph - N/A   Overcast
12:30 PM 60.8 °F 60.8 °F 100% 29.89 in 10.0 mi SSW 12.7 mph - N/A Rain Light Rain
12:35 PM 60.8 °F 60.8 °F 100% 29.89 in 10.0 mi SSW 12.7 mph - N/A Rain Light Rain
12:40 PM 60.8 °F 60.8 °F 100% 29.89 in 10.0 mi SSW 12.7 mph - N/A   Overcast
12:49 PM 62.6 °F 62.6 °F 100% 29.88 in 10.0 mi SSW 12.7 mph - N/A   Overcast
12:58 PM 61.9 °F 61.5 °F 99% 29.90 in 10.0 mi SSW 12.7 mph - 0.00 in   Overcast
1:07 PM 62.6 °F 60.8 °F 94% 29.88 in 10.0 mi SSW 13.8 mph - N/A   Overcast
1:15 PM 60.8 °F 60.8 °F 100% 29.89 in 8.0 mi SW 13.8 mph - N/A Rain Light Rain
2:36 PM 60.8 °F 57.2 °F 88% 29.89 in 10.0 mi WSW 17.3 mph - N/A   Mostly Cloudy
2:55 PM 62.8 °F 55.2 °F 76% 29.90 in 10.0 mi SW 17.3 mph 27.6 mph N/A   Scattered Clouds
3:55 PM 61.0 °F 54.1 °F 78% 29.89 in 10.0 mi SSW 20.7 mph - N/A   Clear
4:55 PM 58.1 °F 54.9 °F 89% 29.89 in 10.0 mi SW 13.8 mph - N/A   Mostly Cloudy
5:55 PM 57.2 °F 55.6 °F 94% 29.90 in 10.0 mi South 11.5 mph - N/A   Mostly Cloudy
6:55 PM 57.7 °F 56.5 °F 96% 29.92 in 10.0 mi South 13.8 mph - 0.00 in   Overcast
7:30 PM 57.2 °F 57.2 °F 100% 29.93 in 10.0 mi South 13.8 mph - N/A Rain Light Rain
7:51 PM 56.5 °F 56.1 °F 99% 29.93 in 7.0 mi South 11.5 mph - 0.02 in   Overcast
7:55 PM 56.5 °F 56.1 °F 99% 29.93 in 7.0 mi South 11.5 mph - 0.02 in   Overcast
8:23 PM 57.2 °F 55.4 °F 94% 29.93 in 6.0 mi South 15.0 mph - N/A Rain Rain
8:55 PM 57.2 °F 55.4 °F 94% 29.93 in 10.0 mi South 11.5 mph - N/A   Overcast
9:06 PM 57.2 °F 55.4 °F 94% 29.94 in 5.0 mi South 11.5 mph - N/A Rain Light Rain
9:35 PM 55.4 °F 55.4 °F 100% 29.96 in 2.0 mi South 11.5 mph - N/A Rain Light Rain
9:55 PM 55.4 °F 55.4 °F 100% 29.96 in 5.0 mi SSW 6.9 mph - N/A Rain Light Rain
10:09 PM 55.4 °F 55.4 °F 100% 29.96 in 10.0 mi SSW 6.9 mph - N/A   Mostly Cloudy
10:25 PM 55.4 °F 55.4 °F 100% 29.98 in 10.0 mi South 9.2 mph - N/A Rain Light Rain
10:42 PM 55.4 °F 55.4 °F 100% 29.98 in 10.0 mi SSW 5.8 mph - N/A   Light Drizzle
10:55 PM 54.5 °F 54.5 °F 100% 29.98 in 10.0 mi South 8.1 mph - 0.01 in   Overcast
11:55 PM 53.8 °F 53.8 °F 100% 30.00 in 10.0 mi SW 8.1 mph - N/A   Overcast